Total_Precipitation_Accumulation
0.23 0.30 0.37 0.39 0.33 0.27 0.24 0.28 0.43 0.44 0.54 0.68 0.82 0.86 1.06 1.10 1.07 1.10 1.04 1.03 1.08 1.22 1.20 1.17 1.22 1.23 1.34 1.39 1.58 1.59 1.66 1.75 1.84 1.81 1.82 1.79 1.75 1.72 1.78 1.84 1.81 2.05 2.30 2.39
0.22 0.25 0.28 0.31 0.32 0.25 0.19 0.18 0.22 0.38 0.65 0.69 0.73 0.79 0.96 0.98 0.99 1.08 1.18 1.16 1.18 1.25 1.34 1.20 1.13 1.09 1.06 1.15 1.34 1.50 1.62 1.55 1.57 1.65 1.59 1.56 1.60 1.60 1.65 1.74 1.86 2.09 2.16 2.24
0.32 0.29 0.35 0.40 0.32 0.27 0.21 0.20 0.22 0.42 0.71 0.74 0.78 0.88 1.00 1.06 1.08 1.04 1.05 1.12 1.21 1.29 1.31 1.12 1.08 1.07 1.09 1.12 1.24 1.38 1.50 1.58 1.66 1.71 1.66 1.61 1.67 1.78 1.79 1.94 2.03 2.03 2.00 2.05
0.43 0.51 0.67 0.47 0.33 0.31 0.36 0.33 0.32 0.39 0.49 0.58 0.76 0.83 0.88 0.94 1.14 1.23 1.17 1.25 1.30 1.27 1.24 1.20 1.13 1.14 1.15 1.14 1.23 1.37 1.43 1.56 1.70 1.74 1.69 1.72 1.74 1.76 1.90 2.10 2.18 2.11 1.97 1.99
0.57 0.67 0.59 0.51 0.43 0.41 0.49 0.57 0.49 0.58 0.55 0.61 0.72 0.82 1.00 0.93 1.03 1.01 1.15 1.21 1.26 1.29 1.28 1.31 1.27 1.33 1.33 1.27 1.34 1.50 1.64 1.73 1.72 1.78 1.83 1.89 1.94 2.00 2.11 2.19 2.21 2.28 2.18 2.09
0.72 0.86 0.89 0.78 0.66 0.58 0.62 1.00 0.75 0.73 0.77 0.85 0.90 1.12 1.39 1.23 1.08 1.07 1.17 1.15 1.19 1.20 1.25 1.33 1.33 1.48 1.59 1.61 1.61 1.71 1.86 1.99 2.03 2.13 2.25 2.25 2.37 2.49 2.51 2.49 2.41 2.45 2.29 2.21
0.94 1.06 1.07 0.84 0.73 0.71 1.22 1.46 0.95 0.86 0.91 0.92 1.00 1.14 1.21 1.25 1.26 1.19 1.04 1.01 1.07 1.15 1.14 1.26 1.47 1.68 1.85 1.89 1.84 1.91 2.04 2.22 2.39 2.51 2.73 2.88 2.98 2.91 2.82 2.80 2.78 2.55 2.37 2.34
1.29 1.49 1.44 0.91 0.84 1.22 1.55 1.24 1.23 1.08 1.01 1.03 1.00 1.06 1.15 1.22 1.26 1.12 1.09 1.06 1.10 1.21 1.21 1.28 1.53 1.74 1.92 1.99 2.04 2.21 2.35 2.54 2.69 2.89 2.96 3.09 3.49 3.54 3.51 3.40 3.10 2.81 2.74 2.58
1.48 1.59 1.32 1.13 1.29 1.41 1.41 1.39 1.45 1.46 1.29 1.20 1.14 1.15 1.21 1.18 1.12 1.06 1.08 1.04 1.08 1.23 1.36 1.44 1.60 1.87 2.15 2.21 2.26 2.38 2.54 2.76 2.92 3.01 3.12 3.25 3.44 3.44 3.42 3.35 3.07 2.87 2.85 2.73
1.67 1.74 1.52 1.44 1.44 1.49 1.52 1.46 1.43 1.53 1.68 1.68 1.43 1.28 1.30 1.27 1.18 1.18 1.22 1.17 1.20 1.32 1.49 1.70 1.86 2.08 2.33 2.39 2.51 2.59 2.65 2.77 2.86 2.95 3.07 3.25 3.41 3.35 3.29 3.21 3.17 3.11 3.04 2.94
2.13 2.09 1.92 1.74 1.73 1.82 1.72 1.62 1.65 1.67 1.75 1.84 1.52 1.29 1.25 1.35 1.33 1.34 1.44 1.47 1.46 1.53 1.67 1.90 2.06 2.25 2.37 2.41 2.59 2.75 2.72 2.76 2.87 2.89 2.92 3.05 3.14 3.25 3.17 3.08 3.12 3.14 3.12 3.14
2.44 2.18 2.23 2.06 1.75 1.83 1.93 1.79 1.79 1.76 1.72 1.60 1.50 1.44 1.47 1.51 1.49 1.49 1.62 1.67 1.69 1.70 1.81 1.99 2.16 2.35 2.44 2.56 2.71 2.86 2.90 2.81 2.84 2.87 2.89 2.90 2.87 2.76 2.77 2.72 2.70 2.63 2.71 2.78
2.01 1.86 1.97 1.97 1.89 1.90 2.08 1.96 1.70 1.64 1.64 1.65 1.60 1.51 1.54 1.57 1.49 1.52 1.62 1.65 1.70 1.78 1.84 1.93 2.06 2.29 2.49 2.72 2.95 3.14 3.13 3.07 3.03 3.08 3.13 3.10 3.06 2.97 2.91 2.83 2.68 2.43 2.29 2.28
1.87 1.90 1.99 2.06 2.15 2.06 2.09 2.00 1.79 1.67 1.63 1.69 1.70 1.58 1.55 1.58 1.60 1.65 1.74 1.68 1.63 1.72 1.86 1.93 1.98 2.16 2.37 2.60 2.92 3.14 3.13 3.18 3.15 3.10 3.16 3.16 3.13 3.10 3.04 2.92 2.80 2.58 2.32 2.20
1.97 2.08 2.20 2.19 2.22 2.19 2.14 2.07 2.15 2.01 1.84 1.81 1.87 1.80 1.69 1.65 1.68 1.66 1.65 1.59 1.56 1.60 1.71 1.91 2.05 2.12 2.28 2.39 2.57 2.81 2.91 3.00 3.03 2.98 2.91 2.97 3.07 3.06 2.98 2.89 2.77 2.58 2.28 2.19
2.03 2.13 2.14 2.15 2.20 2.19 2.18 2.22 2.24 2.11 1.95 1.96 2.01 1.90 1.81 1.77 1.71 1.62 1.58 1.64 1.72 1.76 1.81 1.98 2.08 2.21 2.42 2.58 2.72 2.84 2.93 3.04 3.00 2.84 2.67 2.62 2.66 2.73 2.68 2.71 2.71 2.62 2.44 2.30
2.21 2.28 2.26 2.25 2.17 2.15 2.26 2.36 2.27 2.14 1.99 1.91 1.94 1.91 1.76 1.67 1.63 1.60 1.56 1.59 1.63 1.71 1.82 1.98 2.08 2.11 2.32 2.64 2.84 2.81 2.79 2.78 2.84 2.71 2.50 2.39 2.44 2.53 2.63 2.71 2.68 2.54 2.39 2.30
2.18 2.17 2.14 2.22 2.21 2.19 2.25 2.30 2.34 2.19 2.04 1.91 1.81 1.83 1.87 1.84 1.65 1.53 1.53 1.57 1.60 1.57 1.60 1.75 1.87 1.96 2.11 2.35 2.63 2.71 2.71 2.65 2.53 2.45 2.43 2.36 2.34 2.41 2.49 2.48 2.35 2.24 2.12 1.98
2.02 2.01 1.98 1.99 2.14 2.26 2.35 2.29 2.29 2.21 2.06 2.02 2.03 2.02 2.01 2.02 1.83 1.67 1.60 1.62 1.73 1.80 1.70 1.74 1.93 1.88 1.99 2.21 2.43 2.49 2.56 2.61 2.54 2.36 2.31 2.40 2.29 2.23 2.17 2.10 2.01 1.91 1.79 1.77
2.05 1.98 2.00 2.12 2.23 2.40 2.47 2.34 2.20 2.15 2.18 2.12 2.11 2.13 2.10 2.08 2.02 1.95 1.88 1.81 1.95 2.05 2.04 1.99 1.87 1.86 1.97 2.23 2.39 2.33 2.37 2.45 2.42 2.29 2.21 2.17 2.10 2.04 1.90 1.85 1.83 1.82 1.78 1.76
2.25 2.19 2.24 2.30 2.26 2.33 2.44 2.33 2.13 2.08 2.04 2.05 2.09 2.11 2.08 2.13 2.12 2.16 2.20 2.14 2.07 2.05 1.92 1.95 1.85 1.87 1.88 2.09 2.21 2.19 2.19 2.22 2.25 2.20 2.18 2.16 2.10 2.03 1.89 1.85 1.82 1.77 1.69 1.62
2.45 2.31 2.27 2.32 2.22 2.18 2.32 2.32 2.06 1.92 1.89 1.98 2.05 1.99 2.02 2.08 2.14 2.22 2.18 2.19 2.16 2.13 1.86 1.81 1.83 1.88 1.85 1.88 1.89 2.02 2.10 2.05 2.01 1.97 1.99 1.94 1.93 1.95 1.87 1.79 1.74 1.60 1.51 1.45
2.54 2.36 2.20 2.29 2.35 2.27 2.20 2.13 2.00 1.93 1.96 2.01 2.10 2.17 2.23 2.17 2.14 2.34 2.37 2.04 1.93 1.90 1.77 1.77 1.78 1.70 1.57 1.57 1.72 1.85 1.97 1.98 1.94 1.84 1.81 1.78 1.69 1.68 1.67 1.62 1.55 1.47 1.45 1.43
2.32 2.31 2.20 2.24 2.33 2.27 2.29 2.21 2.09 2.00 1.96 2.00 2.08 2.23 2.36 2.37 2.25 2.15 2.16 2.09 1.85 1.64 1.51 1.51 1.43 1.33 1.28 1.27 1.52 1.71 1.80 1.80 1.79 1.68 1.61 1.59 1.46 1.44 1.47 1.46 1.41 1.39 1.37 1.33
2.18 2.12 2.09 2.15 2.22 2.30 2.32 2.27 2.14 1.96 1.94 2.00 1.93 2.02 2.24 2.35 2.35 2.17 1.96 1.79 1.68 1.53 1.39 1.36 1.35 1.32 1.22 1.24 1.43 1.63 1.71 1.70 1.71 1.65 1.56 1.48 1.35 1.30 1.34 1.36 1.34 1.30 1.25 1.21
2.18 2.08 2.08 2.13 2.09 2.14 2.19 2.17 2.17 2.09 2.07 2.09 2.02 1.99 2.05 1.96 1.92 1.93 1.93 1.81 1.63 1.55 1.41 1.39 1.35 1.30 1.25 1.36 1.48 1.59 1.66 1.63 1.62 1.63 1.51 1.41 1.28 1.23 1.27 1.28 1.24 1.22 1.16 1.10
2.11 2.11 2.10 2.13 2.19 2.18 2.16 2.15 2.11 2.11 2.19 2.31 2.41 2.30 2.19 2.09 2.00 1.87 1.76 1.71 1.58 1.50 1.48 1.44 1.32 1.23 1.23 1.37 1.51 1.57 1.56 1.53 1.49 1.47 1.43 1.35 1.25 1.22 1.25 1.20 1.11 1.04 0.99 0.96